When you browse on this site, cookies collect data to enhance your experience and personalize the content and advertising you see.
Visit our Privacy Policy to learn more. By continuing to use the site, you agree to this use of cookies and data.
  • In Hungary
  • List of Countries
  • For 7 days
  • Water Temperature
  • Satellite Maps
  • Weather Map
  • News
  • Weather Widgets
  • user-avatar
    Login

    Hourly Weather Milakowo

    Today, 15 December, Saturday

    Time Temperature Precipitation Wind Pressure Humidity
    00:00 -2°C° 0 mm 2 mps 763 mmHg 90%
    01:00 -2°C° 0 mm 2 mps 764 mmHg 91%
    02:00 -2°C° 0 mm 2 mps 764 mmHg 91%
    03:00 -2°C° 0 mm 2 mps 764 mmHg 91%
    04:00 -2°C° 0 mm 2 mps 764 mmHg 91%
    05:00 -2°C° 0 mm 2 mps 764 mmHg 91%
    06:00 -2°C° 0 mm 2 mps 764 mmHg 91%
    07:00 -2°C° 0 mm 2 mps 764 mmHg 91%
    08:00 -2°C° 0 mm 3 mps 764 mmHg 89%
    09:00 -1°C° 0 mm 3 mps 764 mmHg 87%
    10:00 -1°C° 0 mm 3 mps 764 mmHg 85%
    11:00 -1°C° 0 mm 3 mps 764 mmHg 84%
    12:00 -1°C° 0 mm 3 mps 764 mmHg 82%
    13:00 -1°C° 0 mm 3 mps 764 mmHg 80%
    14:00 -1°C° 0 mm 3 mps 764 mmHg 82%
    15:00 -1°C° 0 mm 3 mps 764 mmHg 85%
    16:00 -2°C° 0 mm 3 mps 764 mmHg 87%
    17:00 -2°C° 0 mm 3 mps 764 mmHg 87%
    18:00 -2°C° 0 mm 3 mps 764 mmHg 88%
    19:00 -2°C° 0 mm 3 mps 763 mmHg 89%
    20:00 -2°C° 0 mm 3 mps 763 mmHg 88%
    21:00 -2°C° 0 mm 3 mps 763 mmHg 87%
    22:00 -2°C° 0 mm 3 mps 763 mmHg 86%
    23:00 -2°C° 0 mm 3 mps 763 mmHg 85%

    Tomorrow, 16 December, Sunday

    Time Temperature Precipitation Wind Pressure Humidity
    00:00 -2°C° 0 mm 3 mps 762 mmHg 84%
    01:00 -3°C° 0 mm 4 mps 762 mmHg 83%
    02:00 -3°C° 0 mm 4 mps 761 mmHg 82%
    03:00 -3°C° 0 mm 4 mps 761 mmHg 82%
    04:00 -3°C° 0 mm 4 mps 760 mmHg 81%
    05:00 -3°C° 0.1 mm 4 mps 760 mmHg 82%
    06:00 -4°C° 0.1 mm 5 mps 759 mmHg 83%
    07:00 -4°C° 0.1 mm 5 mps 759 mmHg 84%
    08:00 -4°C° 0.2 mm 5 mps 759 mmHg 84%
    09:00 -4°C° 0.2 mm 5 mps 758 mmHg 84%
    10:00 -2°C° 0.2 mm 5 mps 758 mmHg 84%
    11:00 -4°C° 0.4 mm 5 mps 758 mmHg 85%
    12:00 -4°C° 0.4 mm 5 mps 757 mmHg 86%
    13:00 -4°C° 0.4 mm 5 mps 757 mmHg 87%
    14:00 -4°C° 0.3 mm 5 mps 757 mmHg 87%
    15:00 -4°C° 0.3 mm 5 mps 756 mmHg 88%
    16:00 -3°C° 0.3 mm 4 mps 756 mmHg 88%
    17:00 -3°C° 0.1 mm 4 mps 756 mmHg 89%
    18:00 -3°C° 0.1 mm 4 mps 756 mmHg 89%
    19:00 -3°C° 0.1 mm 4 mps 756 mmHg 90%
    20:00 -3°C° 0 mm 4 mps 756 mmHg 90%
    21:00 -2°C° 0 mm 3 mps 756 mmHg 90%
    22:00 -2°C° 0 mm 3 mps 756 mmHg 90%
    23:00 -2°C° 0 mm 3 mps 756 mmHg 90%

    Day after tomorrow, 17 December, Monday

    Time Temperature Precipitation Wind Pressure Humidity
    00:00 -2°C° 0 mm 3 mps 756 mmHg 91%
    01:00 -2°C° 0 mm 3 mps 756 mmHg 92%
    02:00 -2°C° 0 mm 2 mps 756 mmHg 92%
    03:00 -2°C° 0 mm 2 mps 756 mmHg 93%
    04:00 -2°C° 0 mm 2 mps 756 mmHg 93%
    05:00 -2°C° 0 mm 2 mps 756 mmHg 93%
    06:00 -2°C° 0 mm 2 mps 756 mmHg 93%
    07:00 -2°C° 0 mm 2 mps 756 mmHg 93%
    08:00 -2°C° 0 mm 2 mps 756 mmHg 92%
    09:00 -2°C° 0 mm 2 mps 756 mmHg 90%
    10:00 -2°C° 0 mm 2 mps 756 mmHg 88%
    11:00 -2°C° 0 mm 2 mps 756 mmHg 86%
    12:00 -1°C° 0 mm 2 mps 757 mmHg 85%
    13:00 -1°C° 0 mm 2 mps 757 mmHg 83%
    14:00 -2°C° 0 mm 2 mps 757 mmHg 85%
    15:00 -2°C° 0 mm 2 mps 757 mmHg 87%
    16:00 0°C° 0 mm 1 mps 757 mmHg 89%
    17:00 -1°C° 0 mm 1 mps 758 mmHg 90%
    18:00 -3°C° 0 mm 2 mps 758 mmHg 91%
    19:00 -3°C° 0 mm 2 mps 758 mmHg 92%
    20:00 -3°C° 0 mm 2 mps 759 mmHg 93%
    21:00 -3°C° 0 mm 2 mps 759 mmHg 93%
    22:00 -3°C° 0 mm 2 mps 760 mmHg 94%
    23:00 -3°C° 0 mm 2 mps 760 mmHg 94%

    18 December, Tuesday

    Time Temperature Precipitation Wind Pressure Humidity
    00:00 -3°C° 0 mm 2 mps 760 mmHg 94%
    01:00 -3°C° 0 mm 2 mps 761 mmHg 94%
    02:00 -3°C° 0 mm 2 mps 761 mmHg 94%
    03:00 -1°C° 0 mm 1 mps 761 mmHg 95%
    04:00 -1°C° 0 mm 1 mps 761 mmHg 95%
    05:00 -1°C° 0 mm 1 mps 761 mmHg 95%
    06:00 -1°C° 0 mm 1 mps 762 mmHg 95%
    07:00 -1°C° 0 mm 1 mps 762 mmHg 94%
    08:00 -1°C° 0 mm 1 mps 762 mmHg 94%
    09:00 0°C° 0 mm 1 mps 763 mmHg 93%
    10:00 0°C° 0 mm 1 mps 763 mmHg 93%
    11:00 +1°C° 0 mm 1 mps 763 mmHg 92%
    12:00 +1°C° 0 mm 1 mps 763 mmHg 92%
    13:00 +1°C° 0 mm 1 mps 763 mmHg 92%
    14:00 +1°C° 0 mm 1 mps 763 mmHg 93%
    15:00 +1°C° 0 mm 1 mps 764 mmHg 94%
    16:00 +1°C° 0 mm 1 mps 764 mmHg 94%
    17:00 0°C° 0 mm 1 mps 764 mmHg 95%
    18:00 0°C° 0 mm 1 mps 764 mmHg 95%
    19:00 -2°C° 0 mm 2 mps 764 mmHg 95%
    20:00 -2°C° 0 mm 2 mps 764 mmHg 95%
    21:00 -2°C° 0 mm 2 mps 764 mmHg 95%
    22:00 -2°C° 0 mm 2 mps 764 mmHg 95%
    23:00 -2°C° 0 mm 2 mps 764 mmHg 95%

    19 December, Wednesday

    Time Temperature Precipitation Wind Pressure Humidity
    00:00 -2°C° 0 mm 2 mps 764 mmHg 95%
    01:00 -2°C° 0 mm 2 mps 765 mmHg 95%
    02:00 -2°C° 0 mm 2 mps 764 mmHg 95%
    03:00 -2°C° 0 mm 2 mps 764 mmHg 95%
    04:00 -2°C° 0 mm 2 mps 764 mmHg 95%
    05:00 -2°C° 0 mm 2 mps 764 mmHg 95%
    06:00 -2°C° 0 mm 2 mps 764 mmHg 95%
    07:00 -2°C° 0 mm 2 mps 764 mmHg 95%
    08:00 -2°C° 0 mm 2 mps 765 mmHg 94%
    09:00 -1°C° 0 mm 3 mps 765 mmHg 92%
    10:00 -1°C° 0 mm 3 mps 765 mmHg 91%
    11:00 -1°C° 0 mm 3 mps 765 mmHg 88%
    12:00 -1°C° 0 mm 3 mps 765 mmHg 84%
    13:00 -1°C° 0 mm 3 mps 765 mmHg 81%
    14:00 -2°C° 0 mm 3 mps 764 mmHg 83%
    15:00 -4°C° 0 mm 3 mps 764 mmHg 85%
    16:00 -4°C° 0 mm 3 mps 764 mmHg 88%
    17:00 -5°C° 0 mm 4 mps 764 mmHg 88%
    18:00 -5°C° 0 mm 4 mps 764 mmHg 88%
    19:00 -5°C° 0 mm 4 mps 764 mmHg 88%
    20:00 -5°C° 0 mm 4 mps 764 mmHg 86%
    21:00 -4°C° 0 mm 4 mps 765 mmHg 84%
    22:00 -4°C° 0 mm 4 mps 765 mmHg 83%
    23:00 -4°C° 0 mm 4 mps 765 mmHg 83%

    20 December, Thursday

    Time Temperature Precipitation Wind Pressure Humidity
    00:00 -5°C° 0 mm 4 mps 765 mmHg 84%
    01:00 -5°C° 0 mm 4 mps 764 mmHg 84%
    02:00 -7°C° 0 mm 4 mps 764 mmHg 85%
    03:00 -7°C° 0 mm 4 mps 764 mmHg 86%
    04:00 -8°C° 0 mm 4 mps 764 mmHg 87%
    05:00 -8°C° 0 mm 4 mps 764 mmHg 87%
    06:00 -8°C° 0 mm 5 mps 764 mmHg 86%
    07:00 -8°C° 0 mm 5 mps 764 mmHg 86%
    08:00 -8°C° 0 mm 5 mps 764 mmHg 85%
    09:00 -8°C° 0 mm 5 mps 765 mmHg 84%
    10:00 -8°C° 0 mm 5 mps 765 mmHg 83%
    11:00 -8°C° 0 mm 5 mps 765 mmHg 81%
    12:00 -7°C° 0 mm 5 mps 765 mmHg 80%
    13:00 -7°C° 0 mm 4 mps 764 mmHg 79%
    14:00 -7°C° 0 mm 4 mps 764 mmHg 80%
    15:00 -8°C° 0 mm 4 mps 765 mmHg 82%
    16:00 -8°C° 0 mm 4 mps 765 mmHg 84%
    17:00 -9°C° 0 mm 4 mps 765 mmHg 84%
    18:00 -10°C° 0 mm 5 mps 765 mmHg 84%
    19:00 -10°C° 0 mm 5 mps 765 mmHg 84%
    20:00 -10°C° 0 mm 5 mps 765 mmHg 85%
    21:00 -9°C° 0 mm 4 mps 765 mmHg 85%
    22:00 -10°C° 0 mm 4 mps 765 mmHg 86%
    23:00 -10°C° 0 mm 4 mps 765 mmHg 87%
    Show more